Weather History for Mobile, AL

Change the Weather History Date:

Tuesday, May 7, 2013

  Actual Average Record
Temperature  
Mean Temperature 63 °F 72 °F  
Max Temperature 76 °F 83 °F 93 °F (1952)
Min Temperature 50 °F 61 °F 45 °F (1992)
Degree Days  
Heating Degree Days 2    
Cooling Degree Days 0 7  
Month to date cooling degree days 6 45  
Year to date cooling degree days 143 204  
Growing Degree Days 12 (Base 50)    
Moisture  
Dew Point 54 °F    
Average Humidity 70    
Maximum Humidity 93    
Minimum Humidity 46    
Precipitation  
Precipitation 0.00 in 0.16 in 4.46 in (1972)
Month to date precipitation 7.01 1.10  
Year to date precipitation 27.47 22.80  
Sea Level Pressure  
Sea Level Pressure 30.01 in    
Wind  
Wind Speed 4 mph (West)    
Max Wind Speed 13 mph    
Max Gust Speed 17 mph    
Visibility 10 miles    
Events      
T = Trace of Precipitation, MM = Missing Value Source: NWS Daily Summary

Daily Weather History Graph

Daily Weather History Graph

Search for Another Location

Airport:

Trip Planner

Search our weather history database for the weather conditions in past years. The results will help you decide how hot, cold, wet, or windy it might be!

Date:

Astronomy

May. 07, 2013 Rise Set
Actual Time 6:03 AM CDT 7:35 PM CDT
Civil Twilight 5:37 AM CDT 8:01 PM CDT
Nautical Twilight 5:06 AM CDT 8:32 PM CDT
Astronomical Twilight 4:34 AM CDT 9:05 PM CDT
Moon 4:28 AM CDT (5/7) 5:41 PM CDT (5/7)
Length of Visible Light 14h 23m
Length of Day
13h 31m
Waning Crescent, 5% of the Moon is Illuminated
May 7
Waning Crescent
May 9
New
May 17
First Quarter
May 24
Full
May 31
Last Quarter

Hourly Weather History & Observations

Time (CDT) Temp. Dew Point Humidity Pressure Visibility Wind Dir Wind Speed Gust Speed Precip Events Conditions
12:56 AM 55.0 °F 51.1 °F 86% 29.99 in 10.0 mi West 3.5 mph - N/A   Clear
1:56 AM 54.0 °F 51.1 °F 90% 29.98 in 10.0 mi Calm Calm - N/A   Clear
2:56 AM 55.0 °F 51.1 °F 86% 29.97 in 10.0 mi WSW 4.6 mph - N/A   Clear
3:56 AM 54.0 °F 50.0 °F 86% 29.97 in 10.0 mi Calm Calm - N/A   Clear
4:56 AM 51.1 °F 48.9 °F 92% 29.98 in 10.0 mi West 4.6 mph - N/A   Clear
5:56 AM 53.1 °F 50.0 °F 89% 29.99 in 10.0 mi West 4.6 mph - N/A   Partly Cloudy
6:56 AM 55.0 °F 52.0 °F 89% 30.02 in 10.0 mi West 4.6 mph - N/A   Partly Cloudy
7:56 AM 60.1 °F 54.0 °F 80% 30.04 in 10.0 mi West 3.5 mph - N/A   Partly Cloudy
8:56 AM 66.0 °F 55.0 °F 68% 30.05 in 10.0 mi West 5.8 mph - N/A   Partly Cloudy
9:56 AM 69.1 °F 53.1 °F 57% 30.05 in 10.0 mi West 6.9 mph - N/A   Partly Cloudy
10:56 AM 71.1 °F 54.0 °F 55% 30.05 in 10.0 mi NW 6.9 mph - N/A   Scattered Clouds
11:56 AM 73.9 °F 54.0 °F 50% 30.04 in 10.0 mi Variable 5.8 mph - N/A   Mostly Cloudy
12:56 PM 75.0 °F 54.0 °F 48% 30.02 in 10.0 mi NW 10.4 mph - N/A   Mostly Cloudy
1:56 PM 73.9 °F 53.1 °F 48% 30.01 in 10.0 mi West 8.1 mph - N/A   Mostly Cloudy
2:56 PM 75.0 °F 53.1 °F 46% 30.00 in 10.0 mi Variable 6.9 mph - N/A   Overcast
3:56 PM 73.0 °F 54.0 °F 51% 29.99 in 10.0 mi NW 4.6 mph - N/A   Mostly Cloudy
4:56 PM 73.4 °F 55.4 °F 53% 29.99 in 10.0 mi West 3.5 mph - N/A   Overcast
5:56 PM 72.0 °F 55.9 °F 57% 30.00 in 10.0 mi SW 9.2 mph - N/A   Overcast
6:56 PM 70.0 °F 55.9 °F 61% 30.01 in 10.0 mi WSW 4.6 mph - N/A   Mostly Cloudy
7:56 PM 66.0 °F 57.0 °F 73% 30.01 in 10.0 mi West 3.5 mph - N/A   Scattered Clouds
8:56 PM 63.0 °F 57.0 °F 81% 30.03 in 10.0 mi Calm Calm - N/A   Partly Cloudy
9:56 PM 62.1 °F 57.0 °F 84% 30.04 in 10.0 mi Calm Calm - N/A   Clear
10:56 PM 59.0 °F 57.0 °F 93% 30.05 in 10.0 mi Calm Calm - N/A   Clear
11:56 PM 59.0 °F 57.0 °F 93% 30.05 in 10.0 mi Calm Calm - N/A   Clear